Flag for U.S.A. Weather past 2 weeks in Augusta, Georgia, U.S.A.

Now
76 °F

Sunny.


Feels Like: 77 °F
Forecast: 70 / 79 °F
Wind: 12 mph from North

Location: Daniel Field

Current Time: Aug 1, 2014 at 6:33:26 PM

Latest Report: Aug 1, 2014 at 5:53 PM


Visibility: 10 mi

Pressure: 30.03 "Hg

Humidity: 77%

Dew point: 68 °F

Location of AugustaLocation

Historic Weather in Augusta — Graph

°F

Augusta temperature yesterday

Maximum temperature yesterday: 84 °F (at 12:53 PM)
Minimum temperature yesterday: 73 °F (at 9:53 PM)
Average temperature yesterday: 76 °F

Past Weeks' High & Low Weather Summary

 TemperatureHumidityPressure
High96 °F (Jul 28, 4:53 PM)97% (Jul 19, 9:53 PM)30.14 "Hg (Jul 19, 9:53 PM)
Low69 °F (Aug 1, 7:53 AM)31% (Jul 26, 5:53 PM)29.80 "Hg (Jul 28, 4:53 PM)
Average81 °F70%30.01 "Hg
* Reported Jul 17 4:53 PM — Aug 1 4:53 PM, Augusta, Weather by CustomWeather, © 2014

Note: Actual official high and low records may vary slightly from our data, if they occured in-between our weather recording intervals... More about our weather records

Advertising

Augusta weather history for previous 24 hours

 ConditionsComfort  
Time TempWeatherWind HumidityBarometerVisibility
4:53 PM
Aug 1
78 °FSunny.12 mph74%30.02 "Hg10 mi
3:53 PM80 °FPassing clouds.10 mph69%30.03 "Hg10 mi
2:53 PM79 °FSunny.8 mph72%30.03 "Hg10 mi
2:00 PM78 °FScattered clouds.10 mph74%30.06 "Hg10 mi
1:53 PM77 °FPartly sunny.8 mph77%30.05 "Hg10 mi
12:53 PM75 °FPassing clouds.8 mph82%30.05 "Hg10 mi
11:53 AM75 °FSunny.7 mph79%30.06 "Hg10 mi
10:53 AM76 °FPassing clouds.7 mph77%30.06 "Hg10 mi
9:53 AM72 °FOvercast.8 mph84%30.05 "Hg10 mi
8:53 AM70 °FLow clouds.9 mph87%30.06 "Hg10 mi
7:53 AM69 °FLow clouds.12 mph90%30.04 "Hg10 mi
6:53 AM70 °FFog.8 mph93%30.03 "Hg5 mi
5:53 AM70 °FFog.9 mph97%30.02 "Hg5 mi
4:53 AM71 °FLow clouds.7 mph90%30.01 "Hg10 mi
3:53 AM72 °FLow clouds.7 mph87%30.01 "Hg10 mi
2:53 AM72 °FOvercast.6 mph87%30.02 "Hg10 mi
1:53 AM72 °FOvercast.7 mph84%30.03 "Hg10 mi
12:53 AM72 °FOvercast.7 mph87%30.05 "Hg10 mi
11:53 PM
Jul 31
73 °FMostly cloudy.9 mph88%30.05 "Hg10 mi
10:53 PM73 °FLow clouds.8 mph88%30.06 "Hg10 mi
9:53 PM73 °FLight rain. Passing clouds.9 mph90%30.05 "Hg10 mi
8:53 PM74 °FBroken clouds.8 mph88%30.05 "Hg10 mi
7:53 PM74 °FMostly cloudy.7 mph91%30.05 "Hg10 mi
6:53 PM75 °FOvercast.8 mph88%30.03 "Hg10 mi
Weather by CustomWeather, © 2014

See weather overviewHow to use our weather pages